Home   Weather   Hay River   Past weeks

Flag for Canada Past Weather in Hay River, Northwest Territories, Canada — Yesterday and Last 2 Weeks

34 °F

Partly sunny.

Feels Like: 26 °F
Forecast: 31 / 34 °F
Wind: 10 mph from East

Location: Hay River

Current Time: Oct 24, 2016 at 2:09:03 PM

Latest Report: Oct 24, 2016 at 1:00 PM

Visibility: 15 mi

Pressure: 30.34 "Hg

Humidity: 87%

Dew Point: 30 °F

Location of Hay RiverLocation

Past Weather in Hay River — Graph


Hay River Temperature Yesterday

Maximum temperature yesterday: 36 °F (at 9:00 AM)
Minimum temperature yesterday: 32 °F (at 3:00 AM)
Average temperature yesterday: 34 °F

High & Low Weather Summary for the Past Weeks

High37 °F (Oct 9, 12:00 PM)100% (Oct 9, 10:00 PM)30.42 "Hg (Oct 9, 10:00 PM)
Low18 °F (Oct 15, 10:00 PM)59% (Oct 12, 7:00 PM)29.66 "Hg (Oct 20, 3:00 PM)
Average30 °F86%30.00 "Hg
* Reported Oct 9 12:00 PM — Oct 24 12:00 PM, Hay River, Weather by CustomWeather, © 2016

Note: Actual official high and low records may vary slightly from our data, if they occured in-between our weather recording intervals... More about our weather records


Hay River Weather History for the Previous 24 Hours

Scroll right to see more
Time TempWeatherWind HumidityBarometerVisibility
12:00 PM
Mon, Oct 24
34 °FPartly sunny.10 mph87%30.36 "Hg15 mi
11:00 AM34 °FBroken clouds.9 mph87%30.37 "Hg15 mi
10:00 AM32 °FMostly cloudy.8 mph93%30.38 "Hg15 mi
9:00 AM32 °FMostly cloudy.7 mph93%30.38 "Hg15 mi
8:00 AM32 °FMostly cloudy.8 mph93%30.38 "Hg15 mi
7:00 AM32 °FMostly cloudy.8 mph93%30.38 "Hg15 mi
6:00 AM34 °FMostly cloudy.10 mph87%30.39 "Hg15 mi
5:00 AM34 °FOvercast.9 mph87%30.40 "Hg15 mi
4:00 AM34 °FOvercast.7 mph87%30.40 "Hg15 mi
3:00 AM34 °FOvercast.7 mph87%30.41 "Hg15 mi
2:00 AM34 °FOvercast.7 mph87%30.42 "Hg15 mi
1:00 AM32 °FOvercast.5 mph93%30.41 "Hg15 mi
12:00 AM34 °FOvercast.3 mph87%30.41 "Hg15 mi
11:00 PM
Sun, Oct 23
32 °FOvercast.3 mph100%30.40 "Hg15 mi
10:00 PM32 °FOvercast.2 mph100%30.39 "Hg15 mi
9:00 PM32 °FOvercast.2 mph100%30.39 "Hg15 mi
8:00 PM34 °FOvercast.No wind93%30.38 "Hg15 mi
7:00 PM36 °FDrizzle. Overcast.3 mph87%30.37 "Hg15 mi
6:00 PM36 °FLight rain. Mostly cloudy.5 mph87%30.37 "Hg10 mi
5:00 PM36 °FCloudy.2 mph87%30.36 "Hg15 mi
4:00 PM36 °FCloudy.3 mph87%30.35 "Hg15 mi
3:00 PM36 °FMostly cloudy.3 mph87%30.34 "Hg15 mi
2:00 PM36 °FCloudy.2 mph87%30.34 "Hg15 mi
Weather by CustomWeather, © 2016

See weather overviewHow to use our weather pages